KD4IGN Weather Reports


time (UTC)temp
F
wind
direction
speed
knots
gust
knots
rain 1hr
in
rain 24hr
in
rain mn
in
humidity
%
barometer
mb
20260906220517 78 191 1.7 6.1 0.00 0.00 0.00 35 1024.3
20260906215517 79 136 1.7 6.1 0.00 0.00 0.00 35 1024.4
20260906214541 80 181 1.7 6.1 0.00 0.00 0.00 34 1024.4
20260906213521 80 150 0.9 4.3 0.00 0.00 0.00 33 1024.4
20260906212518 79 156 2.6 8.7 0.00 0.00 0.00 34 1024.4
20260906211518 79 146 1.7 6.1 0.00 0.00 0.00 33 1024.6
20260906210519 78 166 0.9 4.3 0.00 0.00 0.00 34 1024.8
20260906205619 81 288 1.7 4.3 0.00 0.00 0.00 32 1024.7
20260906204521 83 169 0.9 4.3 0.00 0.00 0.00 30 1024.8
20260906203519 83 164 2.6 7.0 0.00 0.00 0.00 30 1024.9
20260906202519 82 139 1.7 5.2 0.00 0.00 0.00 31 1024.8
20260906201519 83 158 1.7 8.7 0.00 0.00 0.00 31 1024.9
20260906200539 83 156 0.9 6.1 0.00 0.00 0.00 30 1025.0
20260906195519 83 166 1.7 7.0 0.00 0.00 0.00 31 1025.0
20260906194519 83 71 0.9 5.2 0.00 0.00 0.00 31 1025.1
20260906193519 83 152 1.7 5.2 0.00 0.00 0.00 31 1025.2
20260906192519 82 153 0.9 4.3 0.00 0.00 0.00 32 1025.3
20260906191520 81 139 1.7 4.3 0.00 0.00 0.00 33 1025.3
20260906190517 79 137 0.9 5.2 0.00 0.00 0.00 33 1025.5
20260906185520 79 130 0.9 4.3 0.00 0.00 0.00 33 1025.6
20260906184520 77 155 1.7 5.2 0.00 0.00 0.00 34 1025.7
20260906183540 77 166 0.9 4.3 0.00 0.00 0.00 35 1025.8
20260906182520 78 122 0.9 3.5 0.00 0.00 0.00 33 1025.9
20260906181537 80 165 0.9 3.5 0.00 0.00 0.00 32 1026.0
20260906180521 80 309 1.7 5.2 0.00 0.00 0.00 31 1026.2
20260906175541 79 312 1.7 3.5 0.00 0.00 0.00 32 1026.4
20260906174518 77 351 0.9 5.2 0.00 0.00 0.00 33 1026.5
20260906173518 76 304 0.9 2.6 0.00 0.00 0.00 34 1026.5
20260906172518 76 234 0.0 1.7 0.00 0.00 0.00 34 1026.6
20260906171521 77 147 0.9 2.6 0.00 0.00 0.00 33 1026.7
20260906170521 77 336 0.9 3.5 0.00 0.00 0.00 33 1026.7
20260906165518 76 145 0.9 3.5 0.00 0.00 0.00 33 1026.6
20260906164519 75 350 0.0 2.6 0.00 0.00 0.00 33 1026.7
20260906163519 75 320 0.9 1.7 0.00 0.00 0.00 33 1026.8
20260906162522 75 281 0.9 2.6 0.00 0.00 0.00 34 1026.8
20260906161518 74 264 0.9 3.5 0.00 0.00 0.00 34 1026.9
20260906160559 74 10 1.7 3.5 0.00 0.00 0.00 34 1026.9
20260906155519 72 345 0.9 4.3 0.00 0.00 0.00 35 1026.9
20260906154520 70 7 0.0 1.7 0.00 0.00 0.00 38 1026.9
20260906153519 68 297 0.0 1.7 0.00 0.00 0.00 40 1027.0
20260906152540 66 329 0.9 1.7 0.00 0.00 0.00 46 1027.2
20260906151525 63 4 0.0 0.0 0.00 0.00 0.00 51 1027.2
20260906150525 62 0.0 0.0 0.00 0.00 0.00 53 1027.4
20260906145526 61 355 0.9 2.6 0.00 0.00 0.00 53 1027.3
20260906144518 59 350 0.9 1.7 0.00 0.00 0.00 58 1027.3
20260906143517 58 348 0.0 1.7 0.00 0.00 0.00 60 1027.3
20260906142521 56 21 0.9 2.6 0.00 0.00 0.00 64 1027.3
20260906141521 55 285 0.0 0.9 0.00 0.00 0.00 65 1027.3
20260906140539 54 127 0.0 1.7 0.00 0.00 0.00 67 1027.3
20260906135518 54 73 0.0 1.7 0.00 0.00 0.00 66 1027.2
20260906134518 53 29 0.0 0.9 0.00 0.00 0.00 69 1027.2
20260906133538 51 35 0.0 0.9 0.00 0.00 0.00 72 1027.1
20260906132522 50 0.0 0.0 0.00 0.00 0.00 72 1027.0
20260906131518 50 207 0.0 1.7 0.00 0.00 0.00 73 1026.9
20260906130519 50 198 0.0 0.0 0.00 0.00 0.00 72 1026.8
20260906125519 49 240 0.0 1.7 0.00 0.00 0.00 72 1026.8
20260906124519 50 118 0.0 0.0 0.00 0.00 0.00 72 1026.7
20260906123539 50 328 0.0 1.7 0.00 0.00 0.00 71 1026.6
20260906122519 50 210 0.0 0.9 0.00 0.00 0.00 69 1026.6
20260906121519 50 293 0.0 1.7 0.00 0.00 0.00 70 1026.6
20260906120519 51 165 0.0 2.6 0.00 0.00 0.00 69 1026.7
20260906115521 51 0.0 0.0 0.00 0.00 0.00 69 1026.7
20260906114519 51 310 0.0 0.9 0.00 0.00 0.00 69 1026.7
20260906113520 51 199 0.0 0.9 0.00 0.00 0.00 68 1026.8
20260906112520 52 238 0.0 0.9 0.00 0.00 0.00 67 1026.9
20260906111520 51 154 0.0 1.7 0.00 0.00 0.00 68 1026.8
20260906110520 51 219 0.0 1.7 0.00 0.00 0.00 69 1026.8
20260906105538 51 195 0.0 0.9 0.00 0.00 0.00 69 1026.8
20260906104517 51 280 0.0 0.9 0.00 0.00 0.00 69 1026.7
20260906103521 51 282 0.0 0.9 0.00 0.00 0.00 68 1026.6
20260906102521 52 208 0.0 0.9 0.00 0.00 0.00 67 1026.8
20260906101521 52 270 0.0 0.9 0.00 0.00 0.00 67 1026.7
20260906100518 52 214 0.0 0.9 0.00 0.00 0.00 66 1026.7
20260906095518 52 193 0.0 1.7 0.00 0.00 0.00 66 1026.9
20260906094518 53 190 0.0 1.7 0.00 0.00 0.00 66 1027.0
20260906093521 53 15 0.0 0.9 0.00 0.00 0.00 65 1026.9
20260906092519 53 218 0.0 1.7 0.00 0.00 0.00 65 1026.9
20260906091518 53 314 0.0 0.9 0.00 0.00 0.00 66 1026.8
20260906090518 53 57 0.0 0.9 0.00 0.00 0.00 66 1026.7
20260906085539 54 209 0.9 1.7 0.00 0.00 0.00 66 1026.7
20260906084519 54 197 0.9 1.7 0.00 0.00 0.00 67 1026.8
20260906083519 55 187 0.0 1.7 0.00 0.00 0.00 65 1026.8
20260906082519 56 241 0.0 1.7 0.00 0.00 0.00 63 1026.9
20260906081539 57 292 0.0 2.6 0.00 0.00 0.00 60 1027.0
20260906080519 58 295 0.9 3.5 0.00 0.00 0.00 59 1027.0
20260906075517 58 193 0.9 1.7 0.00 0.00 0.00 59 1027.0
20260906074519 57 234 0.9 1.7 0.00 0.00 0.00 61 1027.0
20260906073520 57 229 0.9 1.7 0.00 0.00 0.00 61 1027.1
20260906072520 57 238 0.0 1.7 0.00 0.00 0.00 62 1027.1
20260906071520 57 279 0.9 2.6 0.00 0.00 0.00 61 1027.0
20260906070537 57 260 0.9 2.6 0.00 0.00 0.00 60 1026.9
20260906065520 58 268 0.9 4.3 0.00 0.00 0.00 60 1027.0
20260906064541 58 261 0.9 2.6 0.00 0.00 0.00 58 1027.2
20260906063518 59 244 0.0 1.7 0.00 0.00 0.00 57 1027.3
20260906062518 60 199 0.0 0.9 0.00 0.00 0.00 55 1027.2
20260906061517 60 303 0.9 2.6 0.00 0.00 0.00 55 1027.3
20260906060521 60 286 0.0 0.9 0.00 0.00 0.00 54 1027.1
20260906055521 60 171 0.9 2.6 0.00 0.00 0.00 56 1027.2
20260906054518 59 168 0.9 3.5 0.00 0.00 0.00 57 1027.3
20260906053538 59 238 0.0 0.9 0.00 0.00 0.00 57 1027.3
20260906052518 60 111 0.0 1.7 0.00 0.00 0.00 56 1027.3
20260906051541 60 2 0.9 3.5 0.00 0.00 0.00 55 1027.2
20260906050519 59 313 0.9 3.5 0.00 0.00 0.00 55 1027.1
20260906045539 59 296 0.0 2.6 0.00 0.00 0.00 55 1027.0
20260906044518 59 193 0.0 0.9 0.00 0.00 0.00 54 1027.1
20260906043519 59 27 0.0 0.9 0.00 0.00 0.00 58 1026.9
20260906042519 59 200 0.0 0.9 0.00 0.00 0.00 58 1026.9
20260906041539 59 224 0.0 1.7 0.00 0.00 0.00 58 1026.9
20260906040539 60 0.0 0.0 0.00 0.00 0.00 57 1026.9
20260906035541 61 284 0.0 0.9 0.00 0.00 0.00 56 1027.0
20260906034520 61 162 0.0 1.7 0.00 0.00 0.00 55 1027.1
20260906033517 60 299 0.9 3.5 0.00 0.00 0.00 56 1027.1
20260906032520 61 276 0.0 0.9 0.00 0.00 0.00 55 1027.0
20260906031600 62 265 0.0 1.7 0.00 0.00 0.00 53 1027.0
20260906030520 62 130 0.9 2.6 0.00 0.00 0.00 53 1026.8
20260906025520 63 201 0.0 1.7 0.00 0.00 0.00 52 1026.8
20260906024517 64 314 0.0 1.7 0.00 0.00 0.00 50 1026.8
20260906023520 65 289 0.9 2.6 0.00 0.00 0.00 48 1026.8
20260906022520 66 327 0.0 0.9 0.00 0.00 0.00 47 1026.7
20260906021518 66 116 1.7 3.5 0.00 0.00 0.00 46 1026.6
20260906020518 66 224 0.0 0.9 0.00 0.00 0.00 48 1026.5
20260906015518 67 115 0.9 2.6 0.00 0.00 0.00 46 1026.5
20260906014521 67 299 0.0 1.7 0.00 0.00 0.00 47 1026.5
20260906013519 67 171 0.9 3.5 0.00 0.00 0.00 46 1026.6
20260906012519 68 132 0.9 3.5 0.00 0.00 0.00 44 1026.7
20260906011558 68 343 0.9 3.5 0.00 0.00 0.00 43 1026.6
20260906010518 68 339 0.9 4.3 0.00 0.00 0.00 44 1026.7
20260906005518 69 357 0.0 1.7 0.00 0.00 0.00 45 1026.6
20260906004519 70 190 1.7 5.2 0.00 0.00 0.00 44 1027.0
20260906003519 70 180 0.9 3.5 0.00 0.00 0.00 41 1027.3
20260906002519 71 151 0.9 3.5 0.00 0.00 0.00 40 1027.1
20260906001539 71 310 0.0 1.7 0.00 0.00 0.00 39 1026.9
20260906000519 71 9 0.9 2.6 0.00 0.00 0.00 40 1026.9
20260905235539 72 6 0.9 4.3 0.00 0.00 0.00 39 1026.9
20260905234519 72 26 1.7 4.3 0.00 0.00 0.00 38 1026.7
20260905233520 73 336 2.6 6.1 0.00 0.00 0.00 37 1026.8
20260905232520 73 58 0.9 3.5 0.00 0.00 0.00 35 1026.8
20260905231520 73 287 0.9 3.5 0.00 0.00 0.00 35 1026.7
20260905230520 73 223 0.9 2.6 0.00 0.00 0.00 36 1026.4
20260905225520 73 144 1.7 6.1 0.00 0.00 0.00 39 1026.2
20260905224520 75 148 3.5 7.0 0.00 0.00 0.00 34 1026.1
20260905223541 78 145 1.7 4.3 0.00 0.00 0.00 30 1025.9
20260905222517 78 127 0.9 2.6 0.00 0.00 0.00 28 1025.8
20260905221538 78 176 0.0 3.5 0.00 0.00 0.00 28 1025.8